Weather History for Marathon, FL

Change the Weather History Date:

Tuesday, August 27, 2013

  Actual Average Record
Temperature  
Mean Temperature 78 °F 85 °F  
Max Temperature 82 °F 91 °F 94 °F (2011)
Min Temperature 73 °F 79 °F 73 °F (2013)
Degree Days  
Heating Degree Days 0 0  
Month to date heating degree days 0 0  
Since 1 June heating degree days 0 0  
Since 1 July heating degree days 0 0  
Cooling Degree Days 13 20  
Month to date cooling degree days 580 552  
Year to date cooling degree days 3650 3309  
Since 1 June cooling degree days 1820 1766  
Growing Degree Days 28 (Base 50)    
Moisture  
Dew Point 70 °F    
Average Humidity 71    
Maximum Humidity 79    
Minimum Humidity 62    
Precipitation  
Precipitation 0.19 in 0.28 in 1.55 in (1998)
Month to date precipitation 1.71 5.86  
Year to date precipitation 38.76 27.69  
Snow  
Snow 0.00 in - - ()
Month to date snowfall 0.0  
Since 1 June snowfall 0.0  
Since 1 July snowfall 0.0  
Snow Depth 0.00 in    
Sea Level Pressure  
Sea Level Pressure 30.01 in    
Wind  
Wind Speed 8 mph (ENE)    
Max Wind Speed 20 mph    
Max Gust Speed 26 mph    
Visibility 10 miles    
Events Rain , Thunderstorm    
T = Trace of Precipitation, MM = Missing Value Source: NWS Daily Summary

Daily Weather History Graph

Daily Weather History Graph

Search for Another Location

Airport:

Trip Planner

Search our weather history database for the weather conditions in past years. The results will help you decide how hot, cold, wet, or windy it might be!

Date:

Astronomy

Aug. 27, 2013 Rise Set
Actual Time 7:03 AM EDT 7:47 PM EDT
Civil Twilight 6:40 AM EDT 8:10 PM EDT
Nautical Twilight 6:12 AM EDT 8:38 PM EDT
Astronomical Twilight 5:44 AM EDT 9:05 PM EDT
Moon No Moon Rise 1:14 PM EDT
Length of Visible Light 13h 30m
Length of Day
12h 43m
Waning Gibbous, 57% of the Moon is Illuminated
Aug 27
Waning Gibbous
Aug 28
Last Quarter
Sep 5
New
Sep 12
First Quarter
Sep 19
Full

Hourly Weather History & Observations

Time (EDT) Temp. Heat Index Dew Point Humidity Pressure Visibility Wind Dir Wind Speed Gust Speed Precip Events Conditions
12:53 AM 81.0 °F 85.2 °F 72.0 °F 74% 30.02 in 10.0 mi ESE 3.5 mph - N/A   Partly Cloudy
1:53 AM 81.0 °F 84.9 °F 71.1 °F 72% 30.00 in 10.0 mi Variable 3.5 mph - N/A   Scattered Clouds
2:53 AM 79.0 °F - 70.0 °F 74% 29.99 in 10.0 mi Calm Calm - N/A   Clear
3:53 AM 79.0 °F - 71.1 °F 77% 29.98 in 10.0 mi ENE 3.5 mph - N/A   Clear
4:53 AM 80.1 °F 82.9 °F 69.1 °F 69% 29.98 in 10.0 mi ENE 3.5 mph - N/A   Clear
5:53 AM 82.0 °F 84.9 °F 68.0 °F 62% 29.98 in 10.0 mi ENE 4.6 mph - N/A   Partly Cloudy
6:53 AM 81.0 °F 85.2 °F 72.0 °F 74% 29.98 in 10.0 mi NE 8.1 mph - N/A   Clear
7:53 AM 81.0 °F 85.8 °F 73.0 °F 77% 30.00 in 10.0 mi NE 8.1 mph - N/A   Partly Cloudy
8:53 AM 82.0 °F 86.7 °F 72.0 °F 71% 30.01 in 10.0 mi NE 9.2 mph - N/A   Clear
9:53 AM 82.0 °F 86.7 °F 72.0 °F 71% 30.02 in 10.0 mi NE 11.5 mph - N/A   Clear
10:53 AM 82.0 °F 86.7 °F 72.0 °F 71% 30.04 in 10.0 mi NE 10.4 mph - N/A   Clear
11:40 AM 78.8 °F - 69.8 °F 74% 30.05 in 10.0 mi East 12.7 mph 21.9 mph N/A Thunderstorm Mostly Cloudy
11:53 AM 79.0 °F - 72.0 °F 79% 30.06 in 10.0 mi East 15.0 mph 21.9 mph N/A Thunderstorm Mostly Cloudy
12:09 PM 78.8 °F - 69.8 °F 74% 30.05 in 10.0 mi East 11.5 mph 20.7 mph N/A   Mostly Cloudy
12:53 PM 80.1 °F 84.2 °F 73.0 °F 79% 30.04 in 10.0 mi East 6.9 mph - N/A   Clear
1:53 PM 80.1 °F 82.9 °F 69.1 °F 69% 30.03 in 10.0 mi East 8.1 mph - N/A   Partly Cloudy
2:53 PM 81.0 °F 83.8 °F 68.0 °F 65% 30.01 in 10.0 mi East 6.9 mph - N/A   Scattered Clouds
3:53 PM 80.1 °F 82.1 °F 66.0 °F 62% 29.99 in 10.0 mi ENE 8.1 mph - N/A   Scattered Clouds
4:53 PM 81.0 °F 83.3 °F 66.9 °F 62% 29.97 in 10.0 mi ENE 8.1 mph - 0.00 in   Mostly Cloudy
5:53 PM 81.0 °F 83.3 °F 66.9 °F 62% 29.97 in 10.0 mi ENE 8.1 mph - N/A   Partly Cloudy
6:53 PM 80.1 °F 82.9 °F 69.1 °F 69% 29.98 in 10.0 mi NE 9.2 mph - N/A   Partly Cloudy
7:53 PM 81.0 °F 83.8 °F 68.0 °F 65% 29.98 in 10.0 mi ENE 11.5 mph - N/A   Scattered Clouds
8:53 PM 81.0 °F 84.1 °F 69.1 °F 67% 29.98 in 10.0 mi NE 11.5 mph - N/A   Partly Cloudy
9:53 PM 81.0 °F 84.1 °F 69.1 °F 67% 30.00 in 10.0 mi ENE 10.4 mph - N/A   Mostly Cloudy
10:53 PM 75.0 °F - 68.0 °F 79% 30.02 in 10.0 mi East 11.5 mph 20.7 mph 0.00 in Rain , Thunderstorm Light Rain
11:11 PM 75.2 °F - 69.8 °F 83% 30.02 in 10.0 mi East 15.0 mph 20.7 mph 0.00 in Rain Light Rain
11:53 PM 75.0 °F - 70.0 °F 84% 30.02 in 6.0 mi ENE 11.5 mph 19.6 mph 0.07 in Rain Light Rain